This demonstration page uses our WeatherBlox Daily Observations layout. Learn more.

Left ArrowRight Arrow

36.17497, -115.13722

Hourly Observations for July 27, 2020

Temp ( °F °C ) Dew Point ( °F °C ) Humidity (%) Winds ( mph kmh ) Pressure ( in mb ) Visibility ( mi km ) Precip ( " mm )
12:53 am 00:53 Clear 91 32.8 41 5 17 17 NE 5 7 29.82 1010 10 16 0.00 0.00
1:53 am 01:53 Clear 89 31.7 41 5 19 19 NW 3 6 29.81 1010 10 16 0.00 0.00
2:53 am 02:53 Clear 87 30.6 43 6.1 21 21 Calm 29.82 1010 10 16 0.00 0.00
3:53 am 03:53 Clear 85 29.4 43 6.1 23 23 NW 5 7 29.81 1010 10 16 0.00 0.00
4:53 am 04:53 Clear 85 29.4 44 6.7 24 24 Calm 29.83 1010 10 16 0.00 0.00
5:53 am 05:53 Sunny 84 28.9 44 6.7 25 25 Calm 29.85 1011 10 16 0.00 0.00
6:53 am 06:53 Sunny 89 31.7 42 5.6 19 19 ENE 3 6 29.86 1011 10 16 0.00 0.00
7:53 am 07:53 Sunny 87 30.6 44 6.7 22 22 N 6 9 29.88 1012 10 16 0.00 0.00
8:53 am 08:53 Sunny 93 33.9 42 5.6 17 17 NNW 5 7 29.88 1012 10 16 0.00 0.00
9:53 am 09:53 Sunny 98 36.7 42 5.6 15 15 N 5 7 29.87 1011 10 16 0.00 0.00
10:53 am 10:53 Sunny 101 38.3 41 5 13 13 VRB 6 9 29.85 1011 10 16 0.00 0.00
11:53 am 11:53 Sunny 102 38.9 39 3.9 11 11 SE 3 6 29.84 1011 10 16 0.00 0.00
12:53 pm 12:53 Sunny 105 40.6 39 3.9 10 10 S 14 22 29.81 1010 10 16 0.00 0.00
1:53 pm 13:53 Sunny 104 40 38 3.3 10 10 SE 8 13 29.78 1009 10 16 0.00 0.00
2:53 pm 14:53 Sunny 107 41.7 39 3.9 10 10 SE 15 24 29.76 1008 10 16 0.00 0.00
3:53 pm 15:53 Sunny 105 40.6 39 3.9 10 10 SSE 10 17 29.74 1007 10 16 0.00 0.00
4:53 pm 16:53 Sunny 108 42.2 37 2.8 9 9 SSW 18 30 29.71 1006 10 16 0.00 0.00
5:53 pm 17:53 Sunny 107 41.7 38 3.3 9 9 S 16 26 29.70 1006 10 16 0.00 0.00
6:53 pm 18:53 Sunny 105 40.6 37 2.8 10 10 SSW 9 15 29.71 1006 10 16 0.00 0.00
7:53 pm 19:53 Clear 103 39.4 36 2.2 10 10 W 14 22 29.72 1006 10 16 0.00 0.00
8:53 pm 20:53 Clear 100 37.8 36 2.2 11 11 WSW 8 13 29.74 1007 10 16 0.00 0.00
9:53 pm 21:53 Clear 98 36.7 34 1.1 11 11 SW 7 11 29.75 1008 10 16 0.00 0.00
10:53 pm 22:53 Clear 95 35 34 1.1 12 12 SW 6 9 29.75 1008 10 16 0.00 0.00
11:53 pm 23:53 Clear 92 33.3 34 1.1 13 13 N 5 7 29.76 1008 10 16 0.00 0.00

Powered by AerisWeather